Location: Unspecified
(48.2082°N, 0.0000°E)
Time: 05:04:38
(UTC+00:00)

Transit 4A - Pass Details

Date: 26 June 2019
Orbit: 862 x 982 km, 66.8° (Epoch: 21 July)

Event Time Altitude Azimuth Distance (km) Brightness Sun altitude
Rises 07:50:40 0° 220° (SW) 3,622 10.7 35.0°
Reaches altitude 10° 07:53:12 10° 222° (SW) 2,693 10.1 35.4°
Maximum altitude 07:59:31 73° 307° (NW) 1,021 8.5 36.4°
Drops below altitude 10° 08:05:58 10° 33° (NNE) 2,746 10.8 37.5°
Sets 08:08:34 0° 35° (NE) 3,697 11.3 37.9°
